#timestamp,LO_Frequency,Hit 
1499076015.6,286046989.9,N
1499076035.5,286046993.2,N
1499076055.3,286046993.1,N
1499076075.2,286046990.1,N
1499076095.9,286046991.9,N
1499076115.7,286046992.1,N
1499076135.6,286046994.5,N
1499076155.4,286046994.1,N
1499076175.2,286046995.7,N
1499076195.1,286046993.3,N
1499076196.0,286046993.3,N
1499076215.8,286046993.6,N
1499076235.7,286046994.3,N
1499076255.5,286046994.6,N
1499076275.3,286046994.0,N
1499076295.2,286046994.0,N
1499076315.9,286046995.6,N
1499076335.7,286046996.2,N
1499076355.6,286046996.1,N
1499076375.4,286046993.8,N
1499076395.2,286046993.7,N
1499076415.1,286046995.0,N
1499076416.0,286046995.0,N
1499076435.8,286046997.6,N
1499076455.7,286046996.2,N
1499076475.5,286046996.2,N
1499076495.3,286046996.0,N
1499076515.2,286046996.3,N
1499076535.0,286046995.9,N
1499076535.9,286046995.9,N
1499076555.7,286046994.7,N
1499076575.6,286046994.5,N
1499076595.4,286046993.3,N
1499076615.3,286046994.4,N
1499076635.1,286046996.4,N
1499076636.0,286046996.4,N
1499076655.8,286046995.8,N
1499076675.7,286046993.4,N
1499076695.5,286046994.5,N
1499076715.4,286046992.5,Y
1499076735.2,286046997.6,N
1499076755.0,286046999.1,N
1499076755.9,286046999.1,N
1499076775.8,286046997.0,N
1499076795.6,286046996.6,N
1499076815.4,286046997.3,N
1499076835.3,286046997.0,N
1499076855.1,286046996.8,N
1499076875.9,286046994.9,N
1499076895.7,286046997.1,N
1499076915.5,286046997.3,N
1499076935.4,286046997.9,N
1499076955.2,286046996.0,N
1499076975.0,286046995.5,N
1499076975.9,286046995.5,N
1499076995.8,286046995.7,N
1499077015.6,286046993.7,N
1499077035.5,286046996.4,N
1499077055.3,286046993.3,N
1499077075.1,286046996.4,N
1499077095.9,286046993.3,N
1499077115.7,286046995.5,N
1499077135.5,286046998.0,N
1499077155.4,286046993.7,N
1499077175.2,286046996.4,N
1499077195.1,286046993.0,Y
1499077196.0,286046993.0,Y
1499077215.8,286047001.5,N
1499077235.6,286047004.2,N
1499077255.5,286047004.0,N
1499077275.3,286047003.7,N
1499077295.2,286047004.2,N
1499077315.9,286047003.7,N
1499077335.7,286047001.7,N
1499077355.6,286047004.4,N
1499077375.4,286047001.3,N
1499077395.2,286047002.8,N
1499077415.1,286047001.8,N
1499077416.0,286047001.8,N
1499077435.8,286047000.3,N
1499077455.7,286047002.5,N
1499077475.5,286047000.6,N
1499077495.3,286047000.2,N
1499077515.2,286047001.5,N
1499077535.0,286047000.1,N
1499077535.9,286047000.1,N
1499077555.7,286047002.8,N
1499077575.6,286046999.9,N
1499077595.4,286047001.0,N
1499077615.3,286046998.7,N
1499077635.1,286046998.2,N
1499077636.0,286046998.2,N
1499077655.8,286047000.5,N
1499077675.7,286046999.8,N
1499077695.5,286047000.8,N
1499077715.3,286047001.1,N
1499077735.2,286047000.3,N
1499077755.0,286047000.7,N
1499077755.9,286047000.7,N
1499077775.8,286046998.1,N
1499077795.6,286046998.1,N
1499077815.4,286047000.9,N
1499077835.3,286046998.5,N
1499077855.1,286046998.1,N
1499077875.8,286046998.5,N
1499077895.7,286047000.2,N
1499077915.5,286046998.2,N
1499077935.3,286046998.1,N
1499077955.2,286046998.3,N
1499077975.0,286046998.8,N
1499077975.9,286046998.8,N
1499077995.8,286046998.1,N
1499078015.6,286046999.4,N
1499078035.4,286046998.8,N
1499078055.3,286046999.2,N
1499078075.1,286046996.8,N
1499078095.9,286046995.6,N
1499078115.7,286046993.7,N
1499078135.5,286046996.1,N
1499078155.4,286046994.7,N
1499078175.2,286046993.6,N
1499078195.0,286046994.7,N
1499078195.9,286046994.7,N
1499078215.8,286046994.2,N
1499078235.6,286046994.2,N
1499078255.4,286046994.4,N
1499078275.3,286046992.1,N
1499078295.1,286046992.3,N
1499078315.9,286046994.3,N
1499078335.7,286046994.2,N
1499078355.5,286046994.1,N
1499078375.4,286046996.3,N
1499078395.2,286046996.4,N
1499078415.0,286046993.9,N
1499078415.9,286046993.9,N
1499078435.8,286046993.5,N
1499078455.6,286046994.2,N
1499078475.5,286046993.3,N
1499078495.3,286046996.2,N
1499078515.1,286046996.0,N
1499078535.9,286046997.2,N
1499078555.7,286046994.9,N
1499078575.5,286046993.9,N
1499078595.4,286046993.8,N
1499078615.2,286046996.2,N
1499078635.1,286046993.8,N
1499078636.0,286046993.8,N
1499078655.8,286046994.2,N
1499078675.6,286046993.5,N
1499078695.5,286046994.1,N
1499078715.3,286046995.7,N
1499078735.1,286046993.4,N
1499078755.9,286046996.4,N
1499078775.7,286046993.4,N
1499078795.6,286046996.1,N
1499078815.4,286046995.6,N
1499078835.2,286046996.0,N
1499078855.1,286046995.9,N
1499078856.0,286046995.9,N
1499078875.8,286046995.1,N
1499078895.6,286046995.1,N
1499078915.5,286046993.9,N
1499078935.3,286046993.8,N
1499078955.2,286046994.2,N
1499078975.9,286046993.3,N
1499078995.7,286046995.8,N
1499079015.6,286046993.9,N
1499079035.4,286046996.4,N
1499079055.2,286046996.2,N
1499079075.1,286046991.9,Y
1499079076.0,286046991.9,Y
1499079095.8,286047002.1,N
1499079115.7,286047004.3,N
1499079135.5,286047003.1,N
1499079155.3,286047007.6,N
1499079175.2,286047005.1,N
1499079195.0,286047005.3,N
1499079195.9,286047005.3,N
1499079215.7,286047003.7,N
1499079235.6,286047003.6,N
1499079255.4,286047001.4,N
1499079275.3,286047001.6,N
1499079295.1,286047000.0,N
1499079296.0,286047000.0,N
1499079315.8,286047000.8,N
1499079335.7,286046998.7,N
1499079355.5,286047000.2,N
1499079375.3,286046999.8,N
1499079395.2,286047004.0,N
1499079415.0,286047001.4,N
1499079415.9,286047001.4,N
1499079435.8,286047005.2,N
1499079455.6,286047005.6,N
1499079475.4,286047003.2,N
1499079495.3,286047003.3,N
1499079515.1,286047004.2,N
1499079535.9,286047003.1,N
1499079555.7,286047005.3,N
1499079575.5,286047005.1,N
1499079595.4,286047004.7,N
